Location: Zagreb
(45.8150°N, 15.9819°E)
Time: 19:06:11
(UTC+01:00)

STARLINK-1759 - Pass Details

Date: 20 September 2020
Orbit: 548 x 551 km, 53.0° (Epoch: 27 October)

Event Time Altitude Azimuth Distance (km) Brightness Sun altitude
Exits shadow 02:54:04 12° 61° (ENE) 1,694 6.7 -35.7°
Drops below altitude 10° 02:54:25 10° 60° (ENE) 1,833 7.0 -35.7°
Enters shadow 03:54:35 -63° 247° (WSW) 11,953 10.4 -28.0°
